Погода в Чуртане

Россия / Тюменская область     56°41′48″N   70°34′52″E
темп.,
°C
ветер,
м/с
пор.,
м/с
влажн.,
%
обл.,
%
осадки,
мм/ч
давл.,
гПа
погр.,
м
29 июня, ср
ср2923:00+9зюз3595100 0.3 1000150
02:00+9сз4797100 0.0 1000260
05:00+8зсз3697100 0.0 999269
08:00+9ссз4690100 0.0 997516
11:00+10ссз568582 0.9 997877
14:00+12ссз6774100 1.1 9961364
17:00+11сз6985100 2.2 996853
20:00+9зсз61391100 1.1 995535
30 июня, чт
чт3023:00+8зсз81690100 1.2 995644
02:00+9сз91579100 0.0 9941033
05:00+9сз9167495 0.0 994921
08:00+10сз101672100 0.0 996890
11:00+11сз91571100 0.0 9971124
14:00+12сз91668100 0.0 9991360
17:00+11сз101576100 0.1 10011079
20:00+10сз91793100 0.4 1003778
1 июля, пт
пт123:00+10зсз71690100 0.6 1004582
02:00+10зсз71481100 0.0 1004679
05:00+9зсз71381100 0.0 1005577
08:00+9зсз61280100 0.0 1006566
11:00+10зсз61181100 0.0 1008590
14:00+16зсз6967100 0.0 10071117
17:00+16з687597 0.3 1008861
20:00+13з51187100 0.6 1008281
2 июля, сб
сб223:00+10з5129411 0.6 1009246
02:00+8з489545 0.0 1008119
05:00+10зсз3692100 0.0 1009139
08:00+13зсз238487 0.0 1009250
11:00+17зсз346065 0.1 10091240
14:00+17зсз566472 0.4 10091045
17:00+17з557092 0.4 10091007
20:00+13з378671 0.3 1009130
3 июля, вс
вс323:00+12з228599 0.3 100831
02:00+11зюз2386100 0.0 100742
05:00+11юз2387100 0.0 100755
08:00+13зюз1284100 0.0 1006131
11:00+16ю227793 0.6 1005237
14:00+17св22666 0.7 1004608
17:00+18в336610 0.9 1003923
20:00+15в348284 0.3 100275